Погода в Виннице

Погода в Виннице : погода сейчас, прогноз погоды и архив. Всё, что Вы хотите узнать о погоде в Виннице!

Хотите узнать прогноз погоды в Виннице? Тогда Вам сюда: Погода в Виннице

Поиск расширенной информации на нашем сайте:

Другие новости

Новости СМИ2

Главная страница сайта

Новости сайта

02.10.2013

Напоминаем, что на нашем новом сайте вы можете получить высокодетализированные прогнозы погоды по пунктам России, СНГ и мира (включающие важные для авиации метеовеличины, такие как направление и скорость ветра, видимость, явления погоды, количество и форма облачности, нижняя и верхняя граница облачности), а также ознакомиться с разнообразными материалами по авиационной метеорологии и подборкой полезных ссылок на эту тему.

Сайт Метеоцентр.Азия посвящён разработке технологий оптимизации авиаметеорологического обслуживания, включая проектирование и перспективное создание нескольких автоматизированных авиаметеорологических систем:
- система выпуска высокодетальных прогностических карт явлений погоды для нижнего воздушного пространства по России и ближнему зарубежью;
- система верификации прогнозов TAF (выпускаемых синоптиками официальных АМСГ РФ и ближнего зарубежья) и AUTOTAF (выпускаемых сайтом Метеоцентр.Азия) - выявление ошибок, онлайн-сопоставление с фактической погодой METAR, автоматическое внесение коррективов в прогнозы при резком отклонении фактической погоды от прогноза, подсчёт оправдываемости прогнозов по элементам и в целом;
- система обработки, анализа и отображения авиаметеорологической информации для применения провайдерами метеорологической информации.

Рекомендуем: Авто новости

Погода в Виннице - сегодня

Время (UTC), дата Ветер
(°,м/с) 
Видим.   Явления Облачность Т
(°С)
Тd
(°С)
f(%) Тe
(°С)
Pmin
(гПа)
dP
(гПа)
Po
(мм)
O2
(г/м3)
Тmin Tmax R s Состояние
почвы
09 25.03.17 340 (С) 13000 м    6/3 600 м верхняя 
[Sc|Ci fib]
+6.6 -5.6 41 +5  1024.2  -0.7  741  292           
12 25.03.17 320 (СЗ) 13000 м    9/4 600 м средняя 
[Sc|Ac trans]
+7.5 -4.4 43 +6  1021.9  -2.1  739  290           
15 25.03.17 270 (З) 13000 м    5/3 600 м верхняя 
[Sc|Ci fib]
+5.8 -2.9 54 +4  1019.1  -2.9  737  291           
18 25.03.17 тихо ()   13000 м    10/5 900 м средняя 
[Sc|Ac und]
+4.6 -2.4 60 +5  1016.9  -2.3  735  292    +8.4       
21 25.03.17 тихо ()   7000 м  слаб. ливневой дождь  10/6 630 м кучево-дожд., средняя 
[Cb cap|Ac und]
+3.1 +0.5 83 +3  1015.2  -0.8  734  292           
00 26.03.17 270 (З) 1200 м  ливневой дождь со снегом  10/10 120 м кучево-дожд. 
[Cb cap]
+0.4 -0.2 96 1013.7  -1.8  733  295         
03 26.03.17 300 (СЗ) 4000 м  слаб. ливневой дождь со снегом  10/10 210 м кучево-дожд. 
[Cb cap]
+0.4 -0.2 96 -2  1012.8  -0.8  732  295           
06 26.03.17 360 (С) 3000 м  слаб. снег{ливн. осадки}  10/8 150 м средняя 
[Frnb|As op]
+0.6 -0.2 94 -2  1014.7  1.8  733  295  +0    равномерный
мокрый или
старый снег
100% 
09 26.03.17 020 (С) 9000 м  дымка{ливн. осадки, снег}  10/8 240 м кучево-дожд., средняя 
[Cb cap|Ac und]
+1.2 -0.2 90 -2  1017.1  2.4  735  295           
12 26.03.17 010 (С) 13000 м  {ливн. осадки, снег}  8/8 600 м 
[Sc]
+3.8 +0.1 77 +1  1018.2  1.4  736  293      0.7     
15 26.03.17 360 (С) 13000 м    8/4 600 м кучево-дожд., средняя 
[Cb cap|Ac trans]
+3.4 +0.2 80 +1  1020  1.7  738  293           
18 26.03.17 320 (СЗ) 13000 м    9/4 600 м средняя 
[Sc|Ac trans]
+2.1 -0.4 84 +1  1021.3  1.1  738  295    +4.4  0.7     
21 26.03.17 300 (СЗ) 13000 м    8/3 600 м средняя 
[Sc|Ac trans]
+1 -1 86 -1  1022.7  1.2  739  297           
00 27.03.17 290 (З) 13000 м    10/6 630 м средняя 
[Sc|Ac und]
+1 -1.3 85 -1  1021.7  -1  739  297           
03 27.03.17 260 (З) 13000 м    5/5 750 м 
[Sc]
+0.6 -2 83 -3  1019.6  -2.1  737  296           
06 27.03.17 280 (З) 13000 м    9/3 600 м средняя 
[Sc|Ac trans]
+1.8 -1.6 78 -1  1017.8  -1.6  736  295  +0.2         
09 27.03.17 320 (СЗ) 13000 м    3/0 средняя 
[Ac trans]
+7.6 +0.6 61 +5  1015.1  -1.8  734  288           
12 27.03.17 320 (СЗ) 11  13000 м    3/3 1000 м 
[Cu hum]
+12 +1.7 49 +10  1013.9  -0.6  734  283           
15 27.03.17 320 (СЗ) 13000 м    3/3 1000 м 
[Sc]
+11.3 +0.6 48 +10  1014.4  0.4  734  284           
18 27.03.17 300 (СЗ) 13000 м    3/0 средняя 
[Ac trans]
+7.9 +2.1 67 +7  1016.2  1.3  735  288    +12.3       
21 27.03.17 270 (З) 13000 м    ясно 
+6.1 +2.7 79 +5  1017.2  0.7  736  290           
00 28.03.17 260 (З) 13000 м    ясно 
+5.3 +1.8 78 +4  1016.9  -0.3  736  290           
03 28.03.17 250 (З) 13000 м    10/0 средняя 
[Ac und]
+6.2 +3.8 85 +4  1015.4  -1.4  734  289           
06 28.03.17 280 (З) 13000 м    4/0 средняя 
[Ac trans]
+8.9 +3 66 +7  1014.1  -0.9  734  286  +5.3         
09 28.03.17 310 (СЗ) 13000 м    3/3 600 м 
[Sc]
+13.7 +4.6 54 +12  1013.2  -0.3  734  281           
Время (UTC), дата Ветер
(°,м/с) 
Видим.   Явления Облачность Т
(°С)
Тd
(°С)
f(%) Тe
(°С)
Pmin
(гПа)
dP
(гПа)
Po
(мм)
O2
(г/м3)
Тmin Tmax R s Состояние
почвы

Для получения пояснительной информации подведите курсор к названию столбца.

ПОГОДА в Виннице - архив

Всё, что Вы хотите узнать о погоде в Виннице - удобно и подробно!

Выберите нужную дату (начиная с 1 января 2015* года) и нажмите кнопку "Найти".
Будут отображены архивные сводки погоды по пункту Винница, начиная с указанной даты.


Отображать данные в формате CSV (для использования в таблицах Excel)


Внимание! Наш архив погоды предназначен исключительно для личного некоммерческого использования в познавательных целях. Если Вам необходимы официальные справки о состоянии погоды (для производственных, юридических, коммерческих и т.п. целей), обращайтесь в органы Росгидромета.

*Примечание: данная дата относится к архиву по метеостанциям СССР (Россия, СНГ, Балтия).
Архив по метеостанциям Зарубежной Европы и Азии (кроме Китая) хранится 10 дней, по другим регионам земного шара (Китай, Африка, Америка, Австралия, Океания) - 1 день.

Винница - район местоположения метеостанции


Название, широта, долгота, высота метеостанции:
Винница 49.2°ш. 28.6°д. 298 м над ур. моря [Украина]

Дополнительная информация

В oтличие oт бoльшинства пoгoдных сайтoв мы публикуем пoдрoбную метеoинфoрмацию в детальнoм прoфессиoнальнoм фoрмате.

Характеристики температуры и влажнoсти вoздуха измеряются на высoте 2 м в тени вдали oт зданий и деревьев.
Скoрoсть ветра измеряется на высoте 10 м (на урoвне рoста челoвека скoрoсть ветра ниже в 1.5-2 раза). Если метеoстанция нахoдится в гoрoде или в лесу, тo скoрoсть ветра занижена на 2-4 м/с пo сравнению с oткрытым местoм. Скoрoсть ветра над акватoриями крупных рек и oзёр, а также на вершинах хoлмoв на 2-5 м/с выше, чем в oбычных услoвиях.
Атмoсфернoе давление в разных тoчках местнoсти мoжет значительнo oтличаться oт давления на метеoстанции, в зависимoсти oт услoвий рельефа (при пoдъёме на 10 м давление пoнижается примернo на 1 мм рт.ст.).